ATLAS 5 CENTAUR R/B, 40947

Orbit data source: Space-Track

ATLAS 5 CENTAUR R/B, 40947 is space debris in HEO originally from a launch on Fri, 02 Oct 2015 UTC launched from the Air Force Eastern Test Range (AFETR). Debris objects in space refer to the collection of defunct objects orbiting the Earth. Examples of debris include non-operational satellites, rocket bodies, and fragments generated from explosions, collisions, or faulty payload assembly.

Loading next visibility...
Identifier
40947, 2015-056B
Orbit
HEO
Country
Flag of USUS
Related business
Flag of USUnited Launch Alliance/Lockheed Martin (US)
Manufacturer
ULA Decatur
Mission
Spacecraft
Bus & Motor
CENTAUR SEC, RL10C-1
Mass
~2,020 kg wet, 2,020 kg dry
Launch date (UTC)
2015-10-02 (10 years ago)
Launch vehicle
Unknown
Launch site
Air Force Eastern Test Range (AFETR)
Object type
Payload
Rocket body
Debris
Shape & HBR
Cyl + 1 Nozzle, 5.8 m
Radar Cross Section
32.260 m², Large (>1 m²)

Expand to show TLE details & history
Last TLE update: 10 hours ago

TLE from 10 hours ago
0 ATLAS 5 CENTAUR R/B
1 40947U 15056B   25304.66726161  .00000189  00000-0  00000+0 0  9997
2 40947  25.6384 123.3288 5863409  55.5359 346.9252  2.04874415 75466
Epoch: 2025-10-31T16:00Z
TLE epoch observation values (Epoch: 2025-10-31T16:00:51.403Z)
Latitude
0.00006°
Longitude
-157.10801°
Altitude
6,523.348 km
Speed
6.824 km/s
True Right ascension
08h 13m 15s
True Declination
0° 00' 00"
Sunlit
Object was in daylight at epoch
Visualization orbit readout
Latitude
Unknown
Longitude
Unknown
Altitude
Unknown
Speed
Unknown
Apparent Right ascension
Unknown
Apparent Declination
Unknown
Sunlit
N/A
Visualization observer readout
Local Sidereal Time
21:25:04
Azimuth
Unknown
Elevation
Unknown
Doppler factor
Unknown
Orbital elements
Apogee altitude
35,166.141 km
Perigee altitude
4,455.076 km
Semi-major axis
26,188.745 km
Eccentricity
0.58634
Inclination
25.6384°
RAAN
123.3288°
Arg. of periapsis
55.5359°
True anomaly
305.05438°
Mean anomaly
346.9252°
Eccentric anomaly
330.25993°
Mean motion
0.51212 °/min
Orbital period
702.96 mins
BSTAR
0
Loading maneuver chart data...
Computing Atmospheric mass density...
Loading historical data...
Loading historical data...
Loading historical data...
Loading historical data...
Loading historical data...
Loading historical data...
Loading historical data...
Other satellites on launch #56 in the year 2015 (2015-10-02 UTC)

Documentation

Showing up to 5 results
|